Find Starlink 30240

NORAD ID: 57404 Int'l Des: 2023-102 Owner: SPXS Country: US Constellation: starlink operational
LEOCIRCULAR

当前视图

正在加载3D地球...

About Starlink 30240

Starlink 30240 (NORAD 57404) is a starlink constellation satellite (v2 mini) launched Jul 19, 2023 by SPXS of US. It operates in LEO, CIRCULAR orbit with a mass of 730.00 kg.

即将过境

Passes for default location (London). Set your location on the main map for personalized predictions.

高度历史

Loading altitude history...

两行轨道根数

1 57404U 23102A 26264.94040894 .00002242 00000-0 90999-4 0 9996
2 57404 43.0048 220.2893 0001506 261.4475 98.6206 15.27569881176252
Epoch: Sep 21, 2026 • Age: 26 hours

当前状态

高度 485.9 km
远地点 / 近地点 N/A
速度 7.63 km/s
星下点 37.46°N, 25.22°W
发射日期 Jul 19, 2023
运行时间 3.1 years
类型 internet

技术详情

分类 Payload
质量 730.00 kg
干质量 700.00 kg
长度 0.30 m
跨度 29.00 m
形状 ? Box + pan
制造商 SPXS
平台类型 Starlink V2M
阶段状态 In Orbit
所有者/国家 SPXS/US

Most Searched